Home > Weather > Victorville > Past weeks

Flag for USA Past Weather in Victorville, California, USA — Yesterday and Last 2 Weeks

Now
72 °F

Clear.


Feels Like: 73 °F
Forecast: 66 / 104 °F
Wind: No wind

Location: George Air Force Base / Victorvi

Current Time: Jul 23, 2016 at 4:18:04 AM

Latest Report: Jul 23, 2016 at 3:55 AM


Visibility: 10 mi

Pressure: 29.98 "Hg (27.23 "Hg at 830m altitude)

Humidity: 14%

Dew Point: 19 °F

Location of VictorvilleLocation

Past Weather in Victorville — Graph

°F

Victorville Temperature Yesterday

Maximum temperature yesterday: 106 °F (at 3:55 PM)
Minimum temperature yesterday: 70 °F (at 5:15 AM)
Average temperature yesterday: 87 °F

High & Low Weather Summary for the Past Weeks

 TemperatureHumidityPressure
High106 °F (Jul 22, 3:55 PM)56% (Jul 12, 4:35 AM)30.11 "Hg (Jul 12, 4:35 AM)
Low61 °F (Jul 11, 5:35 AM)5% (Jul 13, 4:15 PM)29.84 "Hg (Jul 11, 5:15 PM)
Average83 °F19%30.00 "Hg
* Reported Jul 8 3:15 AM — Jul 23 3:15 AM, Victorville, Weather by CustomWeather, © 2016

Note: Actual official high and low records may vary slightly from our data, if they occured in-between our weather recording intervals... More about our weather records

Advertising

Victorville Weather History for the Previous 24 Hours

Scroll right to see more
 ConditionsComfort  
Time TempWeatherWind HumidityBarometerVisibility
3:15 AM
Sat, Jul 23
73 °FClear.No wind14%29.99 "Hg10 mi
2:55 AM75 °FPassing clouds.No wind13%29.99 "Hg10 mi
2:35 AM73 °FPassing clouds.No wind15%30.00 "Hg10 mi
2:15 AM75 °FClear.5 mph14%30.00 "Hg10 mi
1:55 AM73 °FClear.No wind15%30.00 "Hg10 mi
1:35 AM75 °FClear.5 mph15%30.00 "Hg10 mi
1:15 AM75 °FClear.No wind15%30.01 "Hg10 mi
12:55 AM75 °FClear.7 mph15%30.02 "Hg10 mi
12:35 AM75 °FClear.7 mph15%30.02 "Hg10 mi
12:15 AM77 °FClear.No wind14%30.03 "Hg10 mi
11:55 PM
Fri, Jul 22
79 °FClear.No wind15%30.03 "Hg10 mi
11:35 PM79 °FClear.No wind15%30.03 "Hg10 mi
11:15 PM81 °FClear.12 mph14%30.03 "Hg10 mi
10:55 PM82 °FClear.12 mph13%30.03 "Hg10 mi
10:35 PM82 °FClear.13 mph13%30.03 "Hg10 mi
10:15 PM82 °FClear.9 mph13%30.03 "Hg10 mi
9:55 PM82 °FClear.13 mph13%30.03 "Hg10 mi
9:35 PM82 °FClear.14 mph13%30.03 "Hg10 mi
9:15 PM84 °FClear.13 mph12%30.02 "Hg10 mi
8:55 PM84 °FSunny.15 mph12%30.02 "Hg10 mi
8:35 PM88 °FSunny.18 mph12%30.01 "Hg10 mi
8:15 PM88 °FSunny.17 mph12%30.00 "Hg10 mi
7:55 PM90 °FSunny.16 mph11%30.00 "Hg10 mi
7:15 PM95 °FSunny.18 mph9%29.99 "Hg10 mi
6:55 PM97 °FSunny.20 mph9%29.99 "Hg10 mi
6:15 PM100 °FSunny.17 mph8%29.97 "Hg10 mi
5:55 PM102 °FScattered clouds.17 mph7%29.97 "Hg10 mi
5:35 PM104 °FScattered clouds.18 mph7%29.97 "Hg10 mi
5:15 PM104 °FScattered clouds.20 mph7%29.97 "Hg10 mi
4:55 PM106 °FSunny.16 mph7%29.97 "Hg10 mi
4:35 PM106 °FSunny.15 mph7%29.98 "Hg10 mi
4:15 PM106 °FSunny.7 mph7%29.99 "Hg10 mi
3:55 PM106 °FSunny.12 mph7%29.99 "Hg10 mi
3:15 PM104 °FScattered clouds.9 mph7%30.01 "Hg10 mi
2:55 PM104 °FScattered clouds.7 mph6%30.02 "Hg10 mi
2:35 PM104 °FScattered clouds.12 mph6%30.03 "Hg10 mi
2:15 PM102 °FScattered clouds.12 mph7%30.04 "Hg10 mi
1:55 PM102 °FScattered clouds.9 mph7%30.05 "Hg10 mi
1:35 PM100 °FScattered clouds.8 mph7%30.06 "Hg10 mi
1:15 PM100 °FScattered clouds.9 mph8%30.07 "Hg10 mi
12:55 PM100 °FScattered clouds.9 mph7%30.07 "Hg10 mi
12:35 PM99 °FScattered clouds.13 mph8%30.08 "Hg10 mi
12:15 PM99 °FScattered clouds.12 mph9%30.09 "Hg10 mi
11:55 AM97 °FScattered clouds.13 mph9%30.10 "Hg10 mi
11:35 AM97 °FScattered clouds.14 mph9%30.10 "Hg10 mi
11:15 AM95 °FSunny.9 mph10%30.10 "Hg10 mi
10:55 AM93 °FSunny.12 mph11%30.10 "Hg10 mi
10:35 AM91 °FSunny.10 mph12%30.10 "Hg10 mi
10:15 AM90 °FSunny.7 mph14%30.11 "Hg10 mi
9:55 AM90 °FSunny.10 mph13%30.11 "Hg10 mi
9:15 AM86 °FSunny.8 mph15%30.11 "Hg10 mi
8:55 AM84 °FSunny.No wind16%30.11 "Hg10 mi
8:35 AM84 °FSunny.6 mph16%30.11 "Hg10 mi
8:15 AM82 °FSunny.No wind19%30.11 "Hg10 mi
7:55 AM81 °FSunny.No wind18%30.11 "Hg10 mi
7:35 AM79 °FSunny.No wind17%30.10 "Hg10 mi
7:15 AM75 °FSunny.No wind18%30.10 "Hg10 mi
6:55 AM73 °FSunny.No wind19%30.10 "Hg10 mi
6:15 AM70 °FClear.No wind21%30.08 "Hg10 mi
5:55 AM70 °FClear.No wind21%30.08 "Hg10 mi
5:35 AM72 °FClear.No wind20%30.08 "Hg10 mi
5:15 AM70 °FClear.No wind21%30.08 "Hg10 mi
4:55 AM72 °FClear.No wind22%30.08 "Hg10 mi
4:15 AM73 °FClear.6 mph20%30.07 "Hg10 mi
Weather by CustomWeather, © 2016

See weather overviewHow to use our weather pages